This is the latest recevied weather packets stored in our database for station/object ON7LDS-13. If no packets are shown the sender has not sent any weather packets the latest 10 day(s).
| Time | Temp. | Humidity | Pressure | Rain* | Wind** | Luminosity | Snow |
|---|---|---|---|---|---|---|---|
| 1777802126 | 16.67° C | 2% | 1016.6 hPa | - | - | - | - |
| 1777795524 | 17.22° C | 1% | 1016 hPa | - | - | - | - |
| 1777794354 | 16.67° C | 1% | 1015.9 hPa | - | - | - | - |
| 1777787775 | 13.89° C | 1% | 1015.7 hPa | - | - | - | - |
| 1777785923 | 12.78° C | 1% | 1015.7 hPa | - | - | - | - |
| 1777778182 | 12.22° C | 1% | 1016 hPa | - | - | - | - |
| 1777775151 | 12.78° C | 1% | 1016.3 hPa | - | - | - | - |
| 1777771572 | 13.89° C | 1% | 1016.9 hPa | - | - | - | - |
| 1777770951 | 13.89° C | 1% | 1016.8 hPa | - | - | - | - |
| 1777769720 | 13.33° C | 2% | 1017 hPa | - | - | - | - |
| 1777768552 | 13.89° C | 10% | 1017.1 hPa | - | - | - | - |
| 1777767942 | 13.89° C | 11% | 1017.3 hPa | - | - | - | - |
| 1777766150 | 14.44° C | 17% | 1017.8 hPa | - | - | - | - |
| 1777761379 | 15.56° C | 23% | 1017.9 hPa | - | - | - | - |
| 1777760149 | 15.56° C | 24% | 1017.9 hPa | - | - | - | - |
| 1777754138 | 18.33° C | 56% | 1018.5 hPa | - | - | - | - |
| 1777746919 | 21.67° C | 56% | 1018 hPa | - | - | - | - |
| 1777741577 | 23.89° C | 51% | 1018.2 hPa | - | - | - | - |
| 1777739186 | 23.33° C | 53% | 1019 hPa | - | - | - | - |
| 1777735556 | 23.89° C | 53% | 1019.7 hPa | - | - | - | - |
| 1777732546 | 24.44° C | 53% | 1020.5 hPa | - | - | - | - |
| 1777730745 | 24.44° C | 54% | 1021 hPa | - | - | - | - |
| 1777724144 | 23.33° C | 56% | 1022.2 hPa | - | - | - | - |
| 1777720546 | 22.78° C | 57% | 1022.8 hPa | - | - | - | - |
| 1777716945 | 22.22° C | 59% | 1023.3 hPa | - | - | - | - |
* Rain since midnight (hover to see other rain measurements)
** Current wind speed in m/s (hover to see current wind gust speed)